SCP
0 0 0 0 0 0 0 0 0 0 0 0 0 0 -0 0 0 0 0 0 0 0 0 0 0 0 0 0 0 0 0 0 0 0 0 0 0 0 0 0 0 0 0 0 0 0 0
0 0 0 0 0 0 0 0 0 0 0 0 0 -0 0 0 0 0 0 0 0 0 0 0 0 0 0 0 0 0 0 0 0 0 0 0 0 0 0 0 0 0 -0 0 0 0 0
0 0 0 0 0 0 0 0 0 0 0 0 0 0 -0 0 0 0 0 0 0 0 0 0 0 0 0 0 0 0 0 0 0 0 0 0 0 0 0 0 0 0 0 -0 0 0 0
0 0 0 0 0 0 0 0 0 0 0 0 0 0 0 0 0 0 0 0 0 0 0 0 0 0 0 0 0 0 0 0 0 0 0 0 0 0 0 0 0 0 0 -0 -0 0 0
0 0 0 0 0 0 0 0 0 0 0 0 0 0 0 0 0 0 0 0 0 0 0 0 0 0 0 0 0 0 0 0 0 0 0 0 0 0 0 0 0 0 0 0 0 0 0
0 0 0 0 0 0 0 0 0 0 0 0 0 0 0 0 0 0 0 0 0 0 1 0 0 0 0 0 0 0 0 0 0 0 0 0 0 0 0 0 0 0 0 0 0 0 0
0 0 0 0 0 0 0 0 0 0 0 0 0 0 0 0 0 0 0 0 1 0 0 0 0 0 0 0 0 0 0 0 0 0 0 0 0 0 0 0 0 0 0 0 0 0 0
0 0 0 0 0 0 0 0 0 0 0 0 0 0 0 0 0 0 0 0 0 0 0 0 0 0 0 0 0 0 0 0 0 0 0 0 0 0 0 0 0 0 0 0 0 0 0
0 0 0 0 0 0 -0 0 0 0 0 0 0 0 0 0 0 0 0 0 0 0 0 0 0 0 0 0 0 0 0 0 0 0 0 0 0 0 0 0 0 0 0 0 0 0 0
0 0 0 0 0 0 0 0 0 0 0 0 0 0 0 0 0 0 0 0 0 0 0 0 0 0 0 0 0 0 0 0 0 0 0 0 0 0 0 0 0 0 0 0 0 0 0
0 0 0 0 0 0 0 0 0 0 0 0 -0 0 0 0 0 0 0 0 0 0 0 0 0 0 0 0 0 0 0 0 0 0 0 0 0 0 0 0 0 0 0 0 0 0 0
0 0 0 0 0 0 0 0 0 0 0 0 0 0 0 0 0 0 0 0 0 0 0 0 0 0 0 0 0 0 0 0 0 0 0 0 0 0 0 0 0 0 0 0 0 0 0
0 0 0 0 0 0 0 0 0 0 0 0 0 0 0 0 0 0 0 0 0 0 0 0 0 0 0 0 0 0 0 0 0 0 0 0 0 0 0 0 0 0 0 0 0 0 0
0 0 0 0 0 0 0 0 0 0 0 0 0 0 0 0 0 0 0 0 0 0 0 0 0 0 0 0 0 0 0 0 0 0 0 0 0 0 0 0 0 0 0 0 0 0 0
-0 0 0 -0 -0 0 0 0 0 0 0 0 0 -0 0 0 0 0 0 0 0 0 0 0 0 0 0 0 0 0 0 0 0 0 0 0 0 0 0 0 0 0 0 0 0 0 0
0 0 0 0 0 0 0 0 0 0 0 0 0 0 0 0 0 0 0 0 0 0 0 0 0 0 0 0 0 0 0 0 0 0 0 0 0 0 0 0 0 0 0 0 0 0 0
0 0 0 0 0 0 0 0 0 0 0 0 0 0 0 0 0 0 0 0 0 0 0 0 0 0 0 0 0 0 0 0 0 0 0 0 0 0 0 0 0 0 0 0 0 0 0
0 0 0 0 0 0 0 0 0 0 0 0 0 0 0 0 0 0 0 0 0 0 0 0 0 0 0 0 0 0 0 0 0 0 0 0 0 0 0 0 0 0 0 0 0 0 0
0 0 0 0 0 0 0 0 0 0 0 0 0 0 0 0 0 0 0 0 0 0 0 0 0 0 0 0 0 0 0 0 0 0 0 0 0 0 0 0 0 0 0 0 0 0 0
0 0 0 0 0 0 0 0 0 0 0 0 0 0 0 0 0 0 0 0 0 0 0 0 0 0 0 0 0 0 0 0 0 0 0 0 0 0 0 0 0 0 0 0 0 0 0
0 0 0 0 0 0 0 0 0 0 0 0 0 0 0 0 0 0 0 0 0 0 0 0 0 0 0 0 0 0 0 0 0 0 0 0 0 0 0 0 0 0 0 0 0 0 0
0 0 0 0 0 0 0 0 0 0 0 0 0 0 0 0 0 0 0 0 0 0 0 0 0 0 0 0 0 0 0 0 0 0 0 0 0 0 0 0 0 0 0 0 0 0 0
0 0 0 0 0 0 0 0 0 0 0 0 0 -0 0 0 0 0 0 0 0 0 0 0 0 0 0 0 0 0 0 0 0 0 0 0 0 0 0 0 0 0 0 0 0 0 0
0 0 0 0 0 0 0 0 0 0 0 0 0 0 0 0 0 0 0 0 0 0 0 0 0 0 0 0 0 0 0 0 0 0 0 0 0 0 0 0 0 0 0 0 0 0 0
0 0 0 0 0 0 0 0 0 0 0 0 0 0 0 0 0 0 0 0 0 0 0 0 0 0 0 0 0 0 0 0 0 0 0 0 0 0 0 0 0 0 0 0 0 0 0
0 0 0 0 0 0 0 0 0 0 0 0 0 0 0 0 0 0 0 0 0 0 0 0 0 0 0 0 0 0 0 0 0 0 0 0 0 0 0 0 0 0 0 0 0 0 0
0 0 0 0 0 0 0 0 0 0 0 0 0 0 0 0 0 0 0 0 0 0 0 0 0 0 0 0 0 0 0 0 0 0 0 0 0 0 0 0 0 0 0 0 0 0 0
0 0 0 0 0 0 0 0 0 0 0 0 0 0 0 0 0 0 0 0 0 0 0 0 0 0 0 0 0 0 0 0 0 0 0 0 0 0 0 0 0 0 0 0 0 0 0
0 0 0 0 0 0 0 0 0 0 0 0 0 0 0 0 0 0 0 0 0 0 0 0 0 0 0 0 0 0 0 0 0 0 0 0 0 0 0 0 0 0 0 0 0 0 0
Wind_Speed_500mb
36 39 41 45 46 49 52 45 46 42 39 44 60 62 79 102 107 101 96 93 80 90 85 83 73 68 61 43 31 5 41 53 51 43 41 47 38 22 12 15 13 6 12 21 20 22 7
38 40 39 48 46 47 47 49 47 45 41 51 58 63 71 90 108 102 97 93 80 91 86 84 74 72 66 27 49 10 40 53 51 52 37 46 36 28 22 9 17 10 15 36 21 10 6
35 29 37 43 47 41 40 40 44 44 43 45 48 60 57 71 110 104 100 90 82 92 95 87 83 76 56 43 35 16 53 50 42 50 56 41 37 38 23 12 2 8 8 15 21 10 1
25 32 32 34 36 33 34 32 35 41 43 45 52 68 63 75 101 100 95 90 86 94 95 91 82 69 22 57 24 35 54 45 37 27 48 53 44 25 16 8 6 4 5 9 7 11 9
32 24 26 23 27 29 27 28 32 40 43 48 44 53 60 73 99 96 93 83 83 94 92 82 80 54 15 36 45 47 52 66 46 37 37 36 45 17 17 16 3 5 12 4 13 9 4
33 23 21 18 18 20 21 21 23 30 38 47 35 54 74 79 100 98 90 86 92 90 89 87 72 33 25 37 52 52 46 68 53 43 37 22 11 7 6 21 24 16 15 9 11 7 1
37 33 29 25 22 26 25 26 22 24 34 44 31 68 71 108 104 95 93 94 91 62 56 22 44 8 54 49 52 47 48 63 42 35 11 10 7 20 30 32 17 26 11 11 5 6 7
32 39 36 30 25 30 35 37 32 29 35 39 31 28 83 93 96 97 106 92 83 55 34 23 49 28 64 73 33 48 58 34 31 24 18 10 25 14 19 22 21 2 16 21 8 8 5
29 34 44 34 28 34 38 39 37 35 41 30 50 31 92 95 93 106 104 75 67 88 16 13 42 36 68 56 24 58 60 21 31 18 30 17 4 29 16 19 16 12 13 12 10 1 2
28 27 29 26 26 28 32 32 33 32 28 34 47 35 85 91 101 107 81 77 66 75 9 9 14 18 36 35 11 60 51 16 5 18 21 3 9 33 25 28 23 15 21 11 8 12 12
29 26 19 17 14 18 24 24 25 25 18 34 41 49 70 101 88 104 93 95 87 59 16 26 14 43 46 35 51 33 40 14 14 16 12 7 4 28 33 34 29 9 11 10 4 5 6
30 27 20 13 6 3 7 16 25 24 22 22 41 56 65 106 74 98 91 109 69 11 10 16 20 18 25 10 11 52 23 18 15 9 5 6 6 8 15 17 37 17 16 8 5 5 7
34 29 22 14 7 1 6 11 12 30 26 23 40 54 37 120 94 100 89 76 11 13 18 16 17 25 27 11 11 32 25 13 13 14 11 4 7 9 8 15 8 31 20 6 9 4 23
36 31 22 16 9 3 9 17 22 11 19 25 28 53 49 113 95 113 117 20 10 12 19 10 18 40 15 29 5 14 24 15 10 11 8 13 10 17 6 11 10 37 25 11 15 9 13
31 32 28 19 13 8 6 15 21 7 21 23 28 63 44 95 115 129 76 28 18 19 15 20 31 38 10 13 16 19 32 29 19 16 14 13 11 6 9 7 12 9 32 4 8 4 6
30 29 27 25 15 9 8 8 16 7 14 15 28 41 75 108 137 109 36 31 11 18 29 44 18 15 18 37 13 19 38 33 20 21 9 15 5 7 17 12 9 4 10 14 3 5 9
14 13 21 26 18 10 9 12 17 15 8 16 14 13 72 125 118 75 33 21 11 19 47 15 15 16 19 30 15 29 42 6 20 30 12 13 8 6 13 14 23 11 11 7 5 7 7
11 15 21 21 14 12 8 7 16 18 6 16 16 5 43 138 24 14 29 15 13 14 3 11 12 10 23 34 10 25 27 18 60 49 31 13 10 7 11 7 12 17 26 30 14 22 3
10 14 18 19 15 12 4 6 15 15 6 16 7 6 46 99 26 22 24 5 8 17 11 10 10 8 11 24 11 10 17 33 56 34 36 17 5 7 7 7 4 18 14 12 27 4 19
13 13 14 17 16 10 3 8 16 19 7 12 7 4 9 44 28 36 43 20 13 22 9 9 13 13 20 20 1 23 19 12 48 48 29 41 8 14 18 8 15 15 34 27 31 13 24
18 16 15 16 19 13 5 6 10 15 6 7 4 5 6 12 14 43 38 18 13 15 7 15 6 20 22 11 12 9 10 8 10 38 23 12 17 9 2 2 21 19 40 50 42 43 22
18 14 17 13 15 15 7 6 6 11 9 3 8 2 5 5 29 44 40 39 20 10 13 13 18 19 12 16 18 14 17 10 15 7 16 0 6 8 6 11 2 11 29 44 58 55 44
24 18 16 18 14 13 11 4 3 10 9 3 9 18 6 8 18 29 39 58 37 21 10 14 21 15 11 12 33 41 33 32 27 26 29 15 11 6 10 4 4 9 33 28 26 28 43
26 20 18 19 15 13 11 7 2 10 10 9 9 13 7 2 8 16 33 43 44 15 15 6 20 14 14 38 44 37 31 31 17 10 18 26 13 6 7 4 9 13 5 18 32 28 37
27 22 14 17 18 12 9 9 6 8 13 11 13 8 8 4 5 8 27 19 28 14 9 8 5 25 63 23 10 9 7 8 8 10 9 5 18 7 10 6 14 27 11 12 14 29 36
16 24 15 20 19 12 8 7 7 6 10 7 17 15 9 6 10 10 18 28 20 18 7 6 15 63 18 6 8 10 10 10 8 7 9 7 11 17 7 12 19 6 26 28 12 41 23
14 18 22 23 18 14 9 7 8 7 7 6 11 11 11 13 18 16 5 23 19 20 8 9 15 9 8 6 6 6 8 7 13 19 12 7 4 24 12 9 16 15 4 25 20 11 3
18 24 25 23 16 12 8 8 11 10 9 6 12 9 10 14 25 25 17 10 5 30 15 18 15 3 2 7 6 6 6 12 7 7 14 13 14 7 6 15 31 13 12 25 11 2 2
17 17 23 22 18 15 13 9 10 10 9 14 12 17 21 16 20 31 36 33 24 16 27 21 7 13 14 8 4 8 5 3 10 7 4 3 12 13 23 16 4 32 1 12 7 7 2
Wind_Direction_500mb
252 260 248 251 251 245 246 245 250 248 246 250 232 232 231 225 210 207 204 204 205 203 202 201 196 192 190 188 214 285 193 203 200 194 202 197 190 180 145 131 117 89 281 304 306 304 265
252 260 251 249 251 248 243 240 249 243 247 241 240 243 236 215 206 202 201 200 202 198 199 200 193 191 193 205 211 247 185 194 197 190 183 192 192 188 127 110 162 198 276 287 285 303 215
257 255 249 244 240 239 238 237 244 244 247 245 242 240 227 239 198 198 197 197 198 197 199 204 196 189 185 192 213 211 185 190 196 203 201 191 175 172 137 105 269 321 301 288 247 186 179
246 255 243 238 231 232 234 234 242 247 246 250 252 227 226 218 194 195 195 195 200 196 197 188 182 183 184 196 181 194 184 174 161 179 191 206 201 159 136 127 59 58 279 255 299 183 151
239 251 233 223 218 222 233 245 247 252 251 246 246 232 211 211 195 191 193 191 188 190 196 194 173 175 152 202 204 184 183 180 165 144 146 161 164 138 125 144 105 227 243 275 314 248 130
226 221 228 220 202 214 234 245 258 262 261 257 250 220 204 217 187 189 188 181 182 180 191 165 162 137 180 185 181 182 183 185 170 132 124 128 119 100 132 173 200 176 213 251 226 222 266
227 224 236 245 240 243 248 257 267 272 273 248 261 215 228 184 183 184 177 174 155 164 152 168 157 140 158 163 168 179 177 175 166 166 144 159 164 202 184 194 140 204 179 230 245 244 187
223 228 237 242 246 256 263 266 262 268 267 249 249 240 192 183 185 181 175 167 168 173 105 136 161 124 149 157 135 157 167 155 168 178 127 131 225 191 164 183 206 112 217 228 294 339 256
218 231 238 252 262 263 263 258 251 255 262 253 251 233 182 187 184 178 174 176 158 153 103 69 150 141 152 158 139 161 175 142 171 163 177 185 210 165 170 184 163 202 217 234 233 124 130
213 227 241 252 254 242 247 255 247 252 256 244 249 237 197 185 181 175 167 161 158 153 97 128 178 152 157 146 85 168 174 140 83 174 163 203 214 178 188 194 178 194 194 209 157 157 230
210 222 231 243 259 252 247 242 246 250 266 239 233 237 198 193 177 177 162 159 153 174 182 153 156 160 157 156 139 182 169 150 143 145 148 176 181 183 195 195 178 191 152 155 158 136 104
212 213 213 217 226 196 242 247 238 243 259 257 234 238 206 195 184 177 168 161 160 138 174 160 140 173 148 140 146 152 158 137 114 103 43 126 295 214 194 169 179 145 91 18 48 119 247
195 211 206 203 204 284 325 311 278 233 254 262 230 223 212 189 180 177 166 148 135 176 157 158 172 168 154 137 113 165 165 138 145 141 174 107 258 304 208 134 128 167 150 173 227 184 234
192 209 203 203 212 248 319 331 331 230 255 260 225 221 210 182 177 171 159 159 152 141 166 133 135 146 145 141 86 150 148 164 221 119 132 158 206 207 222 190 176 193 177 174 188 207 224
200 213 212 212 202 218 299 330 339 216 257 251 221 217 213 175 170 165 155 175 173 156 157 127 119 146 146 189 137 149 189 186 183 170 142 165 242 122 222 167 158 170 198 238 81 28 77
240 207 220 214 228 229 238 298 336 316 255 221 216 217 184 174 164 162 172 193 118 135 131 146 142 168 163 174 130 170 175 201 176 173 162 194 143 204 192 138 65 100 173 208 186 206 234
209 211 201 196 211 211 262 323 344 348 255 198 190 191 169 176 167 163 188 171 114 157 137 141 144 157 169 175 153 180 185 241 168 178 153 152 112 13 133 211 187 143 209 205 321 191 205
141 171 165 178 195 202 220 328 353 356 159 181 174 210 163 162 154 189 173 147 131 152 168 113 106 111 166 162 117 174 191 192 186 163 192 199 122 142 189 333 161 201 203 201 195 207 237
167 145 148 159 194 181 180 14 13 5 115 165 207 311 197 174 172 180 145 148 114 148 151 149 115 140 146 156 141 170 178 216 178 168 171 170 165 83 36 336 75 210 199 168 216 358 239
178 168 153 159 153 177 227 29 31 23 27 171 175 189 248 198 173 162 166 169 114 165 145 115 116 112 118 163 57 181 170 174 180 193 176 160 156 159 187 206 138 189 195 194 190 205 246
192 189 157 166 154 129 132 77 43 44 11 138 21 344 341 182 155 173 171 151 114 153 192 148 89 159 150 135 161 142 132 101 141 190 179 177 205 159 130 188 173 179 192 201 209 217 215
194 185 181 163 160 167 130 149 57 43 38 62 133 33 308 358 140 172 174 184 150 144 148 187 137 162 156 149 182 155 124 159 167 153 158 143 228 119 2 339 243 201 200 202 211 217 226
195 200 191 184 179 162 166 133 70 34 55 64 107 82 49 354 158 170 191 180 174 132 30 129 141 129 136 176 172 173 161 159 160 166 185 149 132 105 224 327 69 320 225 202 213 215 218
201 201 196 184 198 166 155 166 96 33 47 97 120 86 63 34 183 193 172 171 170 160 123 63 138 114 142 124 119 107 85 78 120 76 176 181 125 106 157 87 191 237 273 219 215 221 227
198 199 183 168 170 174 168 163 141 51 46 86 86 88 91 69 334 45 162 149 129 80 66 99 98 133 139 116 86 88 356 49 346 17 10 144 173 125 146 189 294 280 178 148 174 255 228
198 198 175 163 161 172 152 163 164 95 69 82 79 78 98 93 12 309 172 168 155 157 60 53 121 150 138 97 103 141 185 167 202 18 347 73 168 183 125 189 223 333 198 185 119 268 190
177 177 178 183 175 169 164 132 167 142 109 65 91 86 76 95 18 15 56 180 156 122 118 124 154 141 111 123 100 136 214 178 170 150 156 99 77 199 166 224 274 238 183 149 177 258 323
164 167 170 183 178 174 175 158 171 167 163 136 75 97 82 94 47 50 62 81 128 153 151 157 106 348 50 85 121 173 136 204 105 174 169 148 149 179 101 219 255 163 88 189 226 115 87
135 154 168 167 158 150 134 133 149 153 166 178 92 104 109 92 105 73 64 70 83 150 140 157 123 146 165 122 151 134 147 147 153 198 8 189 179 175 189 212 219 189 210 213 99 147 128
Wind_Speed_850mb
36 39 41 45 46 49 52 45 46 42 39 44 60 62 79 102 107 101 96 93 80 90 85 83 73 68 61 43 31 5 41 53 51 43 41 47 38 22 12 15 13 6 12 21 20 22 7
38 40 39 48 46 47 47 49 47 45 41 51 58 63 71 90 108 102 97 93 80 91 86 84 74 72 66 27 49 10 40 53 51 52 37 46 36 28 22 9 17 10 15 36 21 10 6
35 29 37 43 47 41 40 40 44 44 43 45 48 60 57 71 110 104 100 90 82 92 95 87 83 76 56 43 35 16 53 50 42 50 56 41 37 38 23 12 2 8 8 15 21 10 1
25 32 32 34 36 33 34 32 35 41 43 45 52 68 63 75 101 100 95 90 86 94 95 91 82 69 22 57 24 35 54 45 37 27 48 53 44 25 16 8 6 4 5 9 7 11 9
32 24 26 23 27 29 27 28 32 40 43 48 44 53 60 73 99 96 93 83 83 94 92 82 80 54 15 36 45 47 52 66 46 37 37 36 45 17 17 16 3 5 12 4 13 9 4
33 23 21 18 18 20 21 21 23 30 38 47 35 54 74 79 100 98 90 86 92 90 89 87 72 33 25 37 52 52 46 68 53 43 37 22 11 7 6 21 24 16 15 9 11 7 1
37 33 29 25 22 26 25 26 22 24 34 44 31 68 71 108 104 95 93 94 91 62 56 22 44 8 54 49 52 47 48 63 42 35 11 10 7 20 30 32 17 26 11 11 5 6 7
32 39 36 30 25 30 35 37 32 29 35 39 31 28 83 93 96 97 106 92 83 55 34 23 49 28 64 73 33 48 58 34 31 24 18 10 25 14 19 22 21 2 16 21 8 8 5
29 34 44 34 28 34 38 39 37 35 41 30 50 31 92 95 93 106 104 75 67 88 16 13 42 36 68 56 24 58 60 21 31 18 30 17 4 29 16 19 16 12 13 12 10 1 2
28 27 29 26 26 28 32 32 33 32 28 34 47 35 85 91 101 107 81 77 66 75 9 9 14 18 36 35 11 60 51 16 5 18 21 3 9 33 25 28 23 15 21 11 8 12 12
29 26 19 17 14 18 24 24 25 25 18 34 41 49 70 101 88 104 93 95 87 59 16 26 14 43 46 35 51 33 40 14 14 16 12 7 4 28 33 34 29 9 11 10 4 5 6
30 27 20 13 6 3 7 16 25 24 22 22 41 56 65 106 74 98 91 109 69 11 10 16 20 18 25 10 11 52 23 18 15 9 5 6 6 8 15 17 37 17 16 8 5 5 7
34 29 22 14 7 1 6 11 12 30 26 23 40 54 37 120 94 100 89 76 11 13 18 16 17 25 27 11 11 32 25 13 13 14 11 4 7 9 8 15 8 31 20 6 9 4 23
36 31 22 16 9 3 9 17 22 11 19 25 28 53 49 113 95 113 117 20 10 12 19 10 18 40 15 29 5 14 24 15 10 11 8 13 10 17 6 11 10 37 25 11 15 9 13
31 32 28 19 13 8 6 15 21 7 21 23 28 63 44 95 115 129 76 28 18 19 15 20 31 38 10 13 16 19 32 29 19 16 14 13 11 6 9 7 12 9 32 4 8 4 6
30 29 27 25 15 9 8 8 16 7 14 15 28 41 75 108 137 109 36 31 11 18 29 44 18 15 18 37 13 19 38 33 20 21 9 15 5 7 17 12 9 4 10 14 3 5 9
14 13 21 26 18 10 9 12 17 15 8 16 14 13 72 125 118 75 33 21 11 19 47 15 15 16 19 30 15 29 42 6 20 30 12 13 8 6 13 14 23 11 11 7 5 7 7
11 15 21 21 14 12 8 7 16 18 6 16 16 5 43 138 24 14 29 15 13 14 3 11 12 10 23 34 10 25 27 18 60 49 31 13 10 7 11 7 12 17 26 30 14 22 3
10 14 18 19 15 12 4 6 15 15 6 16 7 6 46 99 26 22 24 5 8 17 11 10 10 8 11 24 11 10 17 33 56 34 36 17 5 7 7 7 4 18 14 12 27 4 19
13 13 14 17 16 10 3 8 16 19 7 12 7 4 9 44 28 36 43 20 13 22 9 9 13 13 20 20 1 23 19 12 48 48 29 41 8 14 18 8 15 15 34 27 31 13 24
18 16 15 16 19 13 5 6 10 15 6 7 4 5 6 12 14 43 38 18 13 15 7 15 6 20 22 11 12 9 10 8 10 38 23 12 17 9 2 2 21 19 40 50 42 43 22
18 14 17 13 15 15 7 6 6 11 9 3 8 2 5 5 29 44 40 39 20 10 13 13 18 19 12 16 18 14 17 10 15 7 16 0 6 8 6 11 2 11 29 44 58 55 44
24 18 16 18 14 13 11 4 3 10 9 3 9 18 6 8 18 29 39 58 37 21 10 14 21 15 11 12 33 41 33 32 27 26 29 15 11 6 10 4 4 9 33 28 26 28 43
26 20 18 19 15 13 11 7 2 10 10 9 9 13 7 2 8 16 33 43 44 15 15 6 20 14 14 38 44 37 31 31 17 10 18 26 13 6 7 4 9 13 5 18 32 28 37
27 22 14 17 18 12 9 9 6 8 13 11 13 8 8 4 5 8 27 19 28 14 9 8 5 25 63 23 10 9 7 8 8 10 9 5 18 7 10 6 14 27 11 12 14 29 36
16 24 15 20 19 12 8 7 7 6 10 7 17 15 9 6 10 10 18 28 20 18 7 6 15 63 18 6 8 10 10 10 8 7 9 7 11 17 7 12 19 6 26 28 12 41 23
14 18 22 23 18 14 9 7 8 7 7 6 11 11 11 13 18 16 5 23 19 20 8 9 15 9 8 6 6 6 8 7 13 19 12 7 4 24 12 9 16 15 4 25 20 11 3
18 24 25 23 16 12 8 8 11 10 9 6 12 9 10 14 25 25 17 10 5 30 15 18 15 3 2 7 6 6 6 12 7 7 14 13 14 7 6 15 31 13 12 25 11 2 2
17 17 23 22 18 15 13 9 10 10 9 14 12 17 21 16 20 31 36 33 24 16 27 21 7 13 14 8 4 8 5 3 10 7 4 3 12 13 23 16 4 32 1 12 7 7 2
Wind_Direction_850mb
252 260 248 251 251 245 246 245 250 248 246 250 232 232 231 225 210 207 204 204 205 203 202 201 196 192 190 188 214 285 193 203 200 194 202 197 190 180 145 131 117 89 281 304 306 304 265
252 260 251 249 251 248 243 240 249 243 247 241 240 243 236 215 206 202 201 200 202 198 199 200 193 191 193 205 211 247 185 194 197 190 183 192 192 188 127 110 162 198 276 287 285 303 215
257 255 249 244 240 239 238 237 244 244 247 245 242 240 227 239 198 198 197 197 198 197 199 204 196 189 185 192 213 211 185 190 196 203 201 191 175 172 137 105 269 321 301 288 247 186 179
246 255 243 238 231 232 234 234 242 247 246 250 252 227 226 218 194 195 195 195 200 196 197 188 182 183 184 196 181 194 184 174 161 179 191 206 201 159 136 127 59 58 279 255 299 183 151
239 251 233 223 218 222 233 245 247 252 251 246 246 232 211 211 195 191 193 191 188 190 196 194 173 175 152 202 204 184 183 180 165 144 146 161 164 138 125 144 105 227 243 275 314 248 130
226 221 228 220 202 214 234 245 258 262 261 257 250 220 204 217 187 189 188 181 182 180 191 165 162 137 180 185 181 182 183 185 170 132 124 128 119 100 132 173 200 176 213 251 226 222 266
227 224 236 245 240 243 248 257 267 272 273 248 261 215 228 184 183 184 177 174 155 164 152 168 157 140 158 163 168 179 177 175 166 166 144 159 164 202 184 194 140 204 179 230 245 244 187
223 228 237 242 246 256 263 266 262 268 267 249 249 240 192 183 185 181 175 167 168 173 105 136 161 124 149 157 135 157 167 155 168 178 127 131 225 191 164 183 206 112 217 228 294 339 256
218 231 238 252 262 263 263 258 251 255 262 253 251 233 182 187 184 178 174 176 158 153 103 69 150 141 152 158 139 161 175 142 171 163 177 185 210 165 170 184 163 202 217 234 233 124 130
213 227 241 252 254 242 247 255 247 252 256 244 249 237 197 185 181 175 167 161 158 153 97 128 178 152 157 146 85 168 174 140 83 174 163 203 214 178 188 194 178 194 194 209 157 157 230
210 222 231 243 259 252 247 242 246 250 266 239 233 237 198 193 177 177 162 159 153 174 182 153 156 160 157 156 139 182 169 150 143 145 148 176 181 183 195 195 178 191 152 155 158 136 104
212 213 213 217 226 196 242 247 238 243 259 257 234 238 206 195 184 177 168 161 160 138 174 160 140 173 148 140 146 152 158 137 114 103 43 126 295 214 194 169 179 145 91 18 48 119 247
195 211 206 203 204 284 325 311 278 233 254 262 230 223 212 189 180 177 166 148 135 176 157 158 172 168 154 137 113 165 165 138 145 141 174 107 258 304 208 134 128 167 150 173 227 184 234
192 209 203 203 212 248 319 331 331 230 255 260 225 221 210 182 177 171 159 159 152 141 166 133 135 146 145 141 86 150 148 164 221 119 132 158 206 207 222 190 176 193 177 174 188 207 224
200 213 212 212 202 218 299 330 339 216 257 251 221 217 213 175 170 165 155 175 173 156 157 127 119 146 146 189 137 149 189 186 183 170 142 165 242 122 222 167 158 170 198 238 81 28 77
240 207 220 214 228 229 238 298 336 316 255 221 216 217 184 174 164 162 172 193 118 135 131 146 142 168 163 174 130 170 175 201 176 173 162 194 143 204 192 138 65 100 173 208 186 206 234
209 211 201 196 211 211 262 323 344 348 255 198 190 191 169 176 167 163 188 171 114 157 137 141 144 157 169 175 153 180 185 241 168 178 153 152 112 13 133 211 187 143 209 205 321 191 205
141 171 165 178 195 202 220 328 353 356 159 181 174 210 163 162 154 189 173 147 131 152 168 113 106 111 166 162 117 174 191 192 186 163 192 199 122 142 189 333 161 201 203 201 195 207 237
167 145 148 159 194 181 180 14 13 5 115 165 207 311 197 174 172 180 145 148 114 148 151 149 115 140 146 156 141 170 178 216 178 168 171 170 165 83 36 336 75 210 199 168 216 358 239
178 168 153 159 153 177 227 29 31 23 27 171 175 189 248 198 173 162 166 169 114 165 145 115 116 112 118 163 57 181 170 174 180 193 176 160 156 159 187 206 138 189 195 194 190 205 246
192 189 157 166 154 129 132 77 43 44 11 138 21 344 341 182 155 173 171 151 114 153 192 148 89 159 150 135 161 142 132 101 141 190 179 177 205 159 130 188 173 179 192 201 209 217 215
194 185 181 163 160 167 130 149 57 43 38 62 133 33 308 358 140 172 174 184 150 144 148 187 137 162 156 149 182 155 124 159 167 153 158 143 228 119 2 339 243 201 200 202 211 217 226
195 200 191 184 179 162 166 133 70 34 55 64 107 82 49 354 158 170 191 180 174 132 30 129 141 129 136 176 172 173 161 159 160 166 185 149 132 105 224 327 69 320 225 202 213 215 218
201 201 196 184 198 166 155 166 96 33 47 97 120 86 63 34 183 193 172 171 170 160 123 63 138 114 142 124 119 107 85 78 120 76 176 181 125 106 157 87 191 237 273 219 215 221 227
198 199 183 168 170 174 168 163 141 51 46 86 86 88 91 69 334 45 162 149 129 80 66 99 98 133 139 116 86 88 356 49 346 17 10 144 173 125 146 189 294 280 178 148 174 255 228
198 198 175 163 161 172 152 163 164 95 69 82 79 78 98 93 12 309 172 168 155 157 60 53 121 150 138 97 103 141 185 167 202 18 347 73 168 183 125 189 223 333 198 185 119 268 190
177 177 178 183 175 169 164 132 167 142 109 65 91 86 76 95 18 15 56 180 156 122 118 124 154 141 111 123 100 136 214 178 170 150 156 99 77 199 166 224 274 238 183 149 177 258 323
164 167 170 183 178 174 175 158 171 167 163 136 75 97 82 94 47 50 62 81 128 153 151 157 106 348 50 85 121 173 136 204 105 174 169 148 149 179 101 219 255 163 88 189 226 115 87
135 154 168 167 158 150 134 133 149 153 166 178 92 104 109 92 105 73 64 70 83 150 140 157 123 146 165 122 151 134 147 147 153 198 8 189 179 175 189 212 219 189 210 213 99 147 128